Tacoma Narrows, WA

10:23 AM PDT on May 27, 2018 (GMT -0700)
Tacoma Narrows

Weather History for KTIW - March, 2014

Change the Weather History Date:

Tuesday, March 11, 2014

  Actual Average Record
Temperature  
Mean Temperature 46 °F -  
Max Temperature 54 °F 48 °F 63 °F (2005)
Min Temperature 37 °F 39 °F 28 °F (2009)
Degree Days  
Heating Degree Days 20    
Moisture  
Dew Point 38 °F    
Average Humidity 84    
Maximum Humidity 100    
Minimum Humidity 43    
Precipitation  
Precipitation 0.00 in - - ()
Sea Level Pressure  
Sea Level Pressure 30.54 in    
Wind  
Wind Speed 2 mph (South)    
Max Wind Speed 7 mph    
Max Gust Speed -    
Visibility 6 miles    
Events Fog    
Averages and records for this station are not official NWS values.
T = Trace of Precipitation, MM = Missing Value Source: NWS Daily Summary

Daily Weather History Graph

Daily Weather History Graph

Search for Another Location

Airport or City:

Astronomy

Mar. 11, 2014 Rise Set
Actual Time 7:30 AM PDT 7:10 PM PDT
Civil Twilight 7:00 AM PDT 7:40 PM PDT
Nautical Twilight 6:25 AM PDT 8:16 PM PDT
Astronomical Twilight 5:49 AM PDT 8:52 PM PDT
Moon 2:37 PM PDT (3/11) 4:42 AM PDT (3/11)
Length of Visible Light 12h 40m
Length of Day
11h 39m
Waxing Gibbous, 79% of the Moon is Illuminated
Mar 11
Waxing Gibbous
Mar 16
Full
Mar 23
Last Quarter
Mar 30
New
Apr 7
First Quarter

Hourly Weather History & Observations

Time (PDT) Temp. Windchill Dew Point Humidity Pressure Visibility Wind Dir Wind Speed Gust Speed Precip Events Conditions
12:38 AM 43.0 °F - 39.9 °F 89% 30.48 in 10.0 mi Calm Calm - N/A   Overcast
12:45 AM 43.0 °F - 39.9 °F 89% 30.47 in 10.0 mi Calm Calm - N/A   Overcast
12:53 AM 43.0 °F - 39.9 °F 89% 30.48 in 10.0 mi Calm Calm - N/A   Overcast
1:11 AM 43.0 °F 40.3 °F 39.9 °F 89% 30.49 in 10.0 mi SE 4.6 mph - N/A   Overcast
1:18 AM 43.0 °F 41.3 °F 39.9 °F 89% 30.49 in 10.0 mi SSE 3.5 mph - N/A   Overcast
1:27 AM 43.0 °F 39.5 °F 39.9 °F 89% 30.49 in 10.0 mi South 5.8 mph - N/A   Overcast
1:35 AM 43.0 °F 39.5 °F 39.9 °F 89% 30.50 in 10.0 mi South 5.8 mph - N/A   Overcast
1:53 AM 43.0 °F 40.3 °F 39.9 °F 89% 30.52 in 10.0 mi South 4.6 mph - N/A   Overcast
2:49 AM 42.8 °F 41.1 °F 39.2 °F 87% 30.52 in 10.0 mi SSW 3.5 mph - N/A   Overcast
2:53 AM 42.1 °F 40.2 °F 39.9 °F 92% 30.53 in 10.0 mi SSW 3.5 mph - N/A   Overcast
3:53 AM 42.1 °F - 39.0 °F 89% 30.54 in 10.0 mi Calm Calm - N/A   Partly Cloudy
4:53 AM 39.0 °F - 36.0 °F 89% 30.55 in 10.0 mi Calm Calm - N/A   Clear
5:41 AM 39.0 °F - 37.0 °F 93% 30.56 in 4.0 mi Calm Calm - N/A   Mostly Cloudy
5:43 AM 39.0 °F - 37.0 °F 93% 30.56 in 1.2 mi Calm Calm - N/A   Mostly Cloudy
5:51 AM 39.2 °F - 37.4 °F 93% 30.56 in 0.5 mi Calm Calm - N/A Fog Fog
5:53 AM 39.0 °F - 37.0 °F 93% 30.57 in 0.8 mi Calm Calm - N/A   Mist
5:57 AM 39.0 °F - 37.9 °F 96% 30.56 in 2.0 mi Calm Calm - N/A   Mostly Cloudy
6:05 AM 39.0 °F - 37.0 °F 93% 30.56 in 8.0 mi Calm Calm - N/A   Scattered Clouds
6:53 AM 37.0 °F - 36.0 °F 96% 30.58 in 2.5 mi Calm Calm - N/A   Scattered Clouds
6:58 AM 37.9 °F - 36.0 °F 93% 30.57 in 1.0 mi Calm Calm - N/A   Mist
7:27 AM 37.0 °F - 36.0 °F 96% 30.57 in 1.5 mi Calm Calm - N/A   Overcast
7:35 AM 37.9 °F - 37.0 °F 97% 30.57 in 0.2 mi Calm Calm - N/A Fog Fog
7:53 AM 37.0 °F - 36.0 °F 96% 30.58 in 0.2 mi Calm Calm - N/A Fog Fog
8:35 AM 39.0 °F - 37.9 °F 96% 30.58 in 0.2 mi Calm Calm - N/A Fog Fog
8:53 AM 39.0 °F - 39.0 °F 100% 30.59 in 0.2 mi Calm Calm - N/A Fog Fog
9:17 AM 39.0 °F - 39.0 °F 100% 30.59 in 0.2 mi Calm Calm - N/A Fog Fog
9:41 AM 41.0 °F 39.0 °F 39.0 °F 93% 30.59 in 0.5 mi SSW 3.5 mph - N/A Fog Fog
9:53 AM 41.0 °F 39.0 °F 39.0 °F 93% 30.61 in 0.8 mi West 3.5 mph - N/A   Overcast
10:15 AM 41.0 °F 39.0 °F 39.0 °F 93% 30.59 in 0.2 mi SSE 3.5 mph - N/A Fog Fog
10:21 AM 41.0 °F 39.0 °F 39.9 °F 96% 30.59 in 0.5 mi SSE 3.5 mph - N/A Fog Fog
10:53 AM 41.0 °F 39.0 °F 39.9 °F 96% 30.60 in 0.5 mi South 3.5 mph - N/A Fog Fog
11:28 AM 45.0 °F - 42.1 °F 90% 30.59 in 2.0 mi Calm Calm - N/A   Mostly Cloudy
11:53 AM 46.0 °F 43.9 °F 41.0 °F 83% 30.59 in 3.0 mi WNW 4.6 mph - N/A   Haze
12:53 PM 48.9 °F - 42.1 °F 77% 30.57 in 10.0 mi Calm Calm - N/A   Mostly Cloudy
1:53 PM 50.0 °F - 42.1 °F 74% 30.56 in 10.0 mi WSW 4.6 mph - N/A   Scattered Clouds
2:53 PM 50.0 °F - 39.9 °F 68% 30.54 in 10.0 mi Calm Calm - N/A   Partly Cloudy
3:53 PM 53.1 °F - 37.0 °F 55% 30.52 in 10.0 mi Variable 4.6 mph - N/A   Clear
4:53 PM 54.0 °F - 39.0 °F 57% 30.51 in 10.0 mi NNW 5.8 mph - N/A   Clear
5:53 PM 54.0 °F - 32.0 °F 43% 30.49 in 10.0 mi North 6.9 mph - N/A   Clear
6:53 PM 52.0 °F - 35.1 °F 53% 30.48 in 10.0 mi North 6.9 mph - N/A   Clear
7:53 PM 50.0 °F - 35.1 °F 57% 30.48 in 10.0 mi NNE 5.8 mph - N/A   Clear
8:53 PM 48.9 °F - 35.1 °F 59% 30.48 in 10.0 mi NNE 4.6 mph - N/A   Clear
9:53 PM 48.0 °F - 35.1 °F 61% 30.47 in 10.0 mi NNE 4.6 mph - N/A   Clear
10:53 PM 46.9 °F - 35.1 °F 63% 30.46 in 10.0 mi North 5.8 mph - N/A   Clear
11:53 PM 46.0 °F 43.9 °F 36.0 °F 68% 30.45 in 10.0 mi NNE 4.6 mph - N/A   Clear